GW2352 Weather Reports


time (UTC)temp
C
wind
direction
speed
KPH
gust
KPH
rain 1hr
cm
rain 24hr
cm
rain mn
cm
humidity
%
barometer
mb
20260507213259 14 131 0.0 0.0 0.00 0.00 0.00 87 1016.9
20260507212756 14 175 3.2 3.2 0.00 0.00 0.00 87 1017.2
20260507212252 14 152 0.0 1.6 0.00 0.00 0.00 86 1017.3
20260507211748 14 284 4.8 4.8 0.00 0.00 0.00 86 1016.8
20260507211245 15 141 0.0 0.0 0.00 0.00 0.00 86 1016.8
20260507210742 15 280 3.2 3.2 0.00 0.00 0.00 85 1016.9
20260507210239 15 292 3.2 3.2 0.00 0.00 0.00 85 1017.1
20260507205735 15 141 1.6 1.6 0.00 0.00 0.00 84 1016.8
20260507205232 15 282 1.6 1.6 0.00 0.00 0.00 84 1016.9
20260507204728 15 133 1.6 1.6 0.00 0.00 0.00 84 1016.6
20260507204227 15 185 1.6 1.6 0.00 0.00 0.00 84 1016.6
20260507203724 15 212 0.0 1.6 0.00 0.00 0.00 85 1016.8
20260507203221 14 291 1.6 3.2 0.00 0.00 0.00 86 1016.4
20260507202717 15 55 1.6 1.6 0.00 0.00 0.00 86 1016.5
20260507202213 15 175 1.6 1.6 0.00 0.00 0.00 85 1016.6
20260507201708 14 158 0.0 0.0 0.00 0.00 0.00 85 1016.4
20260507201206 14 190 0.0 0.0 0.00 0.00 0.00 85 1016.7
20260507200702 15 167 0.0 1.6 0.00 0.00 0.00 85 1016.5
20260507200158 15 133 0.0 0.0 0.00 0.00 0.00 85 1016.5
20260507195654 15 154 0.0 0.0 0.00 0.00 0.00 85 1016.4
20260507195152 15 135 0.0 0.0 0.00 0.00 0.00 84 1016.5
20260507194648 15 144 0.0 0.0 0.00 0.00 0.00 84 1016.6
20260507194144 15 20 1.6 1.6 0.00 0.00 0.00 84 1016.6
20260507193641 15 36 1.6 1.6 0.00 0.00 0.00 84 1016.6
20260507193138 15 134 0.0 1.6 0.00 0.00 0.00 84 1016.7
20260507192634 15 184 0.0 1.6 0.00 0.00 0.00 84 1016.7
20260507192131 15 96 0.0 0.0 0.00 0.00 0.00 84 1016.4
20260507191627 15 99 0.0 1.6 0.00 0.00 0.00 84 1016.6
20260507191124 15 166 1.6 1.6 0.00 0.00 0.00 83 1016.6
20260507190621 15 118 0.0 1.6 0.00 0.00 0.00 83 1016.5
20260507190120 15 142 0.0 0.0 0.00 0.00 0.00 82 1016.8
20260507185618 15 135 0.0 1.6 0.00 0.00 0.00 82 1016.7
20260507185114 15 142 0.0 0.0 0.00 0.00 0.00 80 1016.6
20260507184612 15 147 0.0 0.0 0.00 0.00 0.00 79 1016.7
20260507184110 16 141 0.0 0.0 0.00 0.00 0.00 79 1016.8
20260507183606 16 244 1.6 1.6 0.00 0.00 0.00 78 1016.7
20260507183103 16 146 0.0 1.6 0.00 0.00 0.00 75 1016.7
20260507182559 16 169 1.6 1.6 0.00 0.00 0.00 69 1016.7
20260507182055 17 180 0.0 0.0 0.00 0.00 0.00 70 1016.7
20260507181553 17 125 0.0 1.6 0.00 0.00 0.00 69 1016.5
20260507181049 17 134 0.0 1.6 0.00 0.00 0.00 68 1016.4
20260507180545 17 160 0.0 0.0 0.00 0.00 0.00 69 1016.5
20260507180042 17 173 0.0 0.0 0.00 0.00 0.00 67 1016.5
20260507175538 17 135 0.0 0.0 0.00 0.00 0.00 65 1016.6
20260507175036 17 225 1.6 1.6 0.00 0.00 0.00 66 1016.7
20260507174533 17 144 0.0 0.0 0.00 0.00 0.00 65 1016.5
20260507174031 17 146 0.0 0.0 0.00 0.00 0.00 65 1016.4
20260507173527 17 114 0.0 1.6 0.00 0.00 0.00 66 1016.6
20260507173025 17 140 0.0 1.6 0.00 0.00 0.00 64 1016.3
20260507172520 18 147 0.0 0.0 0.00 0.00 0.00 64 1016.1
20260507172017 18 148 1.6 1.6 0.00 0.00 0.00 64 1016.2
20260507171513 18 146 1.6 1.6 0.00 0.00 0.00 61 1016.3
20260507171010 18 132 1.6 1.6 0.00 0.00 0.00 62 1016.2
20260507170507 18 133 0.0 0.0 0.00 0.00 0.00 63 1016.3
20260507170003 18 132 0.0 0.0 0.00 0.00 0.00 62 1016.5
20260507165459 18 131 1.6 1.6 0.00 0.00 0.00 61 1016.2
20260507164950 18 162 1.6 1.6 0.00 0.00 0.00 59 1016.3
20260507164447 18 229 3.2 3.2 0.00 0.00 0.00 60 1016.0
20260507163944 18 135 0.0 0.0 0.00 0.00 0.00 61 1016.1
20260507163442 18 137 0.0 0.0 0.00 0.00 0.00 61 1016.2
20260507162938 19 135 0.0 0.0 0.00 0.00 0.00 60 1015.9
20260507162434 19 130 3.2 3.2 0.00 0.00 0.00 60 1015.9
20260507161931 20 154 0.0 0.0 0.00 0.00 0.00 61 1015.8
20260507161428 20 209 0.0 1.6 0.00 0.00 0.00 61 1016.1
20260507160924 20 151 0.0 1.6 0.00 0.00 0.00 60 1015.8
20260507160420 21 205 0.0 1.6 0.00 0.00 0.00 60 1015.9
20260507155916 21 319 0.0 1.6 0.00 0.00 0.00 58 1015.7
20260507155412 21 118 1.6 3.2 0.00 0.00 0.00 58 1015.8
20260507154909 21 204 3.2 3.2 0.00 0.00 0.00 58 1015.8
20260507154406 22 133 0.0 1.6 0.00 0.00 0.00 58 1016.0
20260507153903 22 144 0.0 1.6 0.00 0.00 0.00 57 1015.7
20260507153359 22 120 1.6 1.6 0.00 0.00 0.00 56 1015.8
20260507152856 22 157 0.0 1.6 0.00 0.00 0.00 55 1015.9
20260507152353 23 152 1.6 1.6 0.00 0.00 0.00 53 1016.1
20260507151849 22 162 0.0 0.0 0.00 0.00 0.00 54 1016.1
20260507151345 23 153 1.6 1.6 0.00 0.00 0.00 52 1016.1
20260507150842 23 149 0.0 0.0 0.00 0.00 0.00 54 1016.1
20260507150339 23 152 1.6 1.6 0.00 0.00 0.00 54 1016.2
20260507145835 22 144 1.6 3.2 0.00 0.00 0.00 54 1016.0
20260507145331 23 146 3.2 3.2 0.00 0.00 0.00 51 1015.8
20260507144828 23 170 1.6 3.2 0.00 0.00 0.00 52 1015.9
20260507144326 23 153 1.6 3.2 0.00 0.00 0.00 51 1016.0
20260507143822 23 286 4.8 8.0 0.00 0.00 0.00 51 1016.1
20260507143319 24 281 3.2 4.8 0.00 0.00 0.00 51 1015.9
20260507142814 24 179 1.6 3.2 0.00 0.00 0.00 51 1015.9
20260507142311 25 1 4.8 4.8 0.00 0.00 0.00 50 1015.9
20260507141808 25 158 1.6 3.2 0.00 0.00 0.00 50 1015.8
20260507141305 24 164 1.6 3.2 0.00 0.00 0.00 51 1015.9
20260507140801 25 170 4.8 4.8 0.00 0.00 0.00 48 1015.9
20260507140258 25 311 3.2 3.2 0.00 0.00 0.00 50 1015.6
20260507135756 25 129 0.0 0.0 0.00 0.00 0.00 50 1015.7
20260507135248 25 164 3.2 4.8 0.00 0.00 0.00 50 1015.9
20260507134744 25 151 3.2 3.2 0.00 0.00 0.00 50 1015.9
20260507134241 26 32 1.6 1.6 0.00 0.00 0.00 51 1016.0
20260507133736 26 275 0.0 1.6 0.00 0.00 0.00 52 1015.8
20260507133233 25 157 1.6 3.2 0.00 0.00 0.00 51 1015.8
20260507132731 24 123 3.2 8.0 0.00 0.00 0.00 53 1015.8
20260507132227 25 336 4.8 8.0 0.00 0.00 0.00 52 1015.9
20260507131724 25 306 4.8 11.3 0.00 0.00 0.00 54 1015.9
20260507131221 25 268 3.2 3.2 0.00 0.00 0.00 54 1016.0
20260507130718 24 14 1.6 1.6 0.00 0.00 0.00 55 1015.9
20260507130216 24 268 6.4 9.7 0.00 0.00 0.00 54 1015.9
20260507125714 25 247 6.4 9.7 0.00 0.00 0.00 53 1015.9
20260507125212 25 297 4.8 8.0 0.00 0.00 0.00 54 1016.0
20260507124708 25 328 6.4 8.0 0.00 0.00 0.00 54 1016.0
20260507124205 25 296 1.6 3.2 0.00 0.00 0.00 54 1015.8
20260507123703 25 292 4.8 11.3 0.00 0.00 0.00 55 1016.0
20260507123200 25 174 3.2 4.8 0.00 0.00 0.00 54 1015.9
20260507122655 25 131 3.2 3.2 0.00 0.00 0.00 56 1015.7
20260507122152 25 171 4.8 4.8 0.00 0.00 0.00 56 1016.0
20260507121648 25 154 1.6 1.6 0.00 0.00 0.00 55 1015.8
20260507121144 25 246 3.2 4.8 0.00 0.00 0.00 56 1015.9
20260507120640 25 126 0.0 1.6 0.00 0.00 0.00 57 1016.0
20260507120137 25 236 4.8 4.8 0.00 0.00 0.00 55 1016.0
20260507115633 25 310 3.2 8.0 0.00 0.00 0.00 57 1015.9
20260507115129 25 146 3.2 4.8 0.00 0.00 0.00 55 1015.9
20260507114625 25 91 1.6 3.2 0.00 0.00 0.00 55 1015.9
20260507114122 25 283 3.2 4.8 0.00 0.00 0.00 57 1016.1
20260507113619 25 221 9.7 11.3 0.00 0.00 0.00 55 1016.1
20260507113116 26 259 3.2 3.2 0.00 0.00 0.00 54 1016.1
20260507112614 25 143 0.0 1.6 0.00 0.00 0.00 56 1016.1
20260507112111 25 202 1.6 1.6 0.00 0.00 0.00 57 1016.2
20260507111608 25 319 6.4 9.7 0.00 0.00 0.00 57 1016.4
20260507111104 25 324 1.6 4.8 0.00 0.00 0.00 58 1016.3
20260507110601 25 28 1.6 1.6 0.00 0.00 0.00 59 1016.2
20260507110057 25 78 1.6 1.6 0.00 0.00 0.00 59 1016.3
20260507105554 25 57 1.6 3.2 0.00 0.00 0.00 58 1016.5
20260507105050 25 359 8.0 11.3 0.00 0.00 0.00 58 1016.0
20260507104548 25 347 3.2 4.8 0.00 0.00 0.00 59 1016.4
20260507104044 25 180 4.8 4.8 0.00 0.00 0.00 60 1016.3
20260507103540 25 322 4.8 4.8 0.00 0.00 0.00 60 1016.4
20260507103037 24 328 4.8 8.0 0.00 0.00 0.00 60 1016.5
20260507102533 23 357 6.4 9.7 0.00 0.00 0.00 62 1016.4
20260507102031 24 286 6.4 9.7 0.00 0.00 0.00 60 1016.5
20260507101525 25 296 8.0 9.7 0.00 0.00 0.00 60 1016.7
20260507101022 24 142 8.0 12.9 0.00 0.00 0.00 61 1016.6
20260507100520 24 190 4.8 4.8 0.00 0.00 0.00 58 1016.6
20260507100017 24 186 4.8 8.0 0.00 0.00 0.00 59 1016.6
20260507095515 24 213 4.8 4.8 0.00 0.00 0.00 57 1016.5
20260507095011 25 147 9.7 11.3 0.00 0.00 0.00 54 1016.6
20260507094508 24 156 1.6 1.6 0.00 0.00 0.00 53 1016.6
20260507094005 24 269 3.2 3.2 0.00 0.00 0.00 53 1016.8
20260507093502 23 177 6.4 9.7 0.00 0.00 0.00 55 1017.2
20260507093001 23 145 0.0 0.0 0.00 0.00 0.00 55 1017.3
20260507092456 23 167 1.6 1.6 0.00 0.00 0.00 54 1017.2
20260507091953 22 197 4.8 4.8 0.00 0.00 0.00 55 1017.4
20260507091449 23 196 3.2 4.8 0.00 0.00 0.00 55 1017.6
20260507090945 23 164 1.6 1.6 0.00 0.00 0.00 57 1017.4
20260507090442 22 294 3.2 4.8 0.00 0.00 0.00 56 1017.5
20260507085938 23 142 3.2 4.8 0.00 0.00 0.00 56 1017.6
20260507085435 23 171 4.8 4.8 0.00 0.00 0.00 56 1017.9
20260507084932 22 144 0.0 0.0 0.00 0.00 0.00 59 1017.9
20260507084429 22 159 0.0 1.6 0.00 0.00 0.00 61 1017.7
20260507083926 22 160 6.4 9.7 0.00 0.00 0.00 60 1018.0
20260507083423 22 135 4.8 8.0 0.00 0.00 0.00 61 1017.8
20260507082919 21 145 3.2 3.2 0.00 0.00 0.00 61 1017.8
20260507082415 21 348 3.2 4.8 0.00 0.00 0.00 62 1017.9
20260507081912 21 170 4.8 8.0 0.00 0.00 0.00 63 1017.9
20260507081408 21 156 3.2 3.2 0.00 0.00 0.00 64 1018.0
20260507080905 21 171 1.6 3.2 0.00 0.00 0.00 65 1018.1
20260507080401 21 208 8.0 11.3 0.00 0.00 0.00 65 1018.2
20260507075857 21 178 1.6 1.6 0.00 0.00 0.00 66 1018.2
20260507075353 21 168 1.6 3.2 0.00 0.00 0.00 66 1018.4
20260507074849 21 155 1.6 3.2 0.00 0.00 0.00 66 1018.1
20260507074347 20 165 4.8 4.8 0.00 0.00 0.00 67 1018.1
20260507073844 20 168 3.2 3.2 0.00 0.00 0.00 67 1018.1
20260507073340 20 169 0.0 1.6 0.00 0.00 0.00 68 1018.0
20260507072838 20 198 1.6 3.2 0.00 0.00 0.00 68 1018.1
20260507072335 20 142 1.6 1.6 0.00 0.00 0.00 68 1018.0
20260507071832 19 175 1.6 3.2 0.00 0.00 0.00 70 1018.0
20260507071329 19 153 3.2 3.2 0.00 0.00 0.00 69 1018.2
20260507070825 19 135 4.8 8.0 0.00 0.00 0.00 70 1018.2
20260507070323 18 181 4.8 4.8 0.00 0.00 0.00 70 1018.2
20260507065820 18 186 4.8 8.0 0.00 0.00 0.00 71 1018.3
20260507065316 18 149 6.4 8.0 0.00 0.00 0.00 72 1018.3
20260507064814 18 179 3.2 3.2 0.00 0.00 0.00 70 1018.2
20260507064312 18 180 3.2 4.8 0.00 0.00 0.00 72 1018.3
20260507063810 18 157 4.8 4.8 0.00 0.00 0.00 71 1018.3
20260507063306 17 141 1.6 1.6 0.00 0.00 0.00 73 1018.4
20260507062803 17 130 1.6 3.2 0.00 0.00 0.00 73 1018.4
20260507062300 17 155 1.6 1.6 0.00 0.00 0.00 74 1018.0
20260507061758 17 158 0.0 1.6 0.00 0.00 0.00 75 1018.2
20260507061256 17 137 0.0 0.0 0.00 0.00 0.00 74 1018.3
20260507060754 17 154 1.6 1.6 0.00 0.00 0.00 75 1018.2
20260507060250 16 139 0.0 0.0 0.00 0.00 0.00 76 1018.1
20260507055747 16 139 0.0 0.0 0.00 0.00 0.00 75 1018.4
20260507055242 16 141 0.0 0.0 0.00 0.00 0.00 76 1018.1
20260507054738 16 141 1.6 1.6 0.00 0.00 0.00 77 1018.4
20260507054235 15 139 0.0 0.0 0.00 0.00 0.00 76 1018.3
20260507053733 15 151 0.0 1.6 0.00 0.00 0.00 77 1018.3
20260507053230 15 154 1.6 1.6 0.00 0.00 0.00 77 1018.1
20260507052729 15 137 0.0 0.0 0.00 0.00 0.00 78 1018.3
20260507052225 15 138 0.0 1.6 0.00 0.00 0.00 78 1018.5
20260507051723 15 152 1.6 1.6 0.00 0.00 0.00 80 1018.4
20260507051220 14 125 0.0 1.6 0.00 0.00 0.00 80 1018.0
20260507050716 14 137 0.0 0.0 0.00 0.00 0.00 82 1018.0
20260507050214 14 122 0.0 0.0 0.00 0.00 0.00 83 1018.3
20260507045710 13 126 0.0 1.6 0.00 0.00 0.00 83 1018.0
20260507045206 13 123 0.0 0.0 0.00 0.00 0.00 84 1018.1
20260507044704 13 131 0.0 0.0 0.00 0.00 0.00 84 1018.2
20260507044200 13 130 0.0 0.0 0.00 0.00 0.00 84 1018.1
20260507043656 13 126 1.6 3.2 0.00 0.00 0.00 84 1018.1
20260507043153 13 133 1.6 3.2 0.00 0.00 0.00 85 1018.0
20260507042650 12 133 0.0 0.0 0.00 0.00 0.00 85 1018.0
20260507042144 12 133 0.0 0.0 0.00 0.00 0.00 85 1017.9
20260507041642 12 132 0.0 1.6 0.00 0.00 0.00 86 1018.0
20260507041138 12 135 0.0 0.0 0.00 0.00 0.00 87 1018.0
20260507040636 12 130 1.6 1.6 0.00 0.00 0.00 87 1018.1
20260507040132 12 129 0.0 0.0 0.00 0.00 0.00 89 1017.8
20260507035628 11 134 0.0 0.0 0.00 0.00 0.00 89 1017.8
20260507035124 11 134 0.0 0.0 0.00 0.00 0.00 89 1017.8
20260507034621 11 135 0.0 0.0 0.00 0.00 0.00 89 1017.8
20260507034118 11 139 0.0 0.0 0.00 0.00 0.00 89 1017.7
20260507033617 11 134 0.0 0.0 0.00 0.00 0.00 89 1017.5
20260507033114 11 132 0.0 0.0 0.00 0.00 0.00 89 1017.6
20260507032611 11 128 0.0 0.0 0.00 0.00 0.00 89 1017.6
20260507032107 11 132 0.0 0.0 0.00 0.00 0.00 90 1017.5
20260507031603 11 129 0.0 0.0 0.00 0.00 0.00 90 1017.4
20260507031100 11 138 0.0 0.0 0.00 0.00 0.00 90 1017.4
20260507030557 11 133 0.0 0.0 0.00 0.00 0.00 90 1017.4
20260507030055 11 153 0.0 0.0 0.00 0.00 0.00 90 1017.4
20260507025552 11 139 0.0 0.0 0.00 0.00 0.00 89 1017.4
20260507025049 11 133 0.0 0.0 0.00 0.00 0.00 89 1017.4
20260507024547 11 131 0.0 0.0 0.00 0.00 0.00 89 1017.1
20260507024043 11 133 0.0 0.0 0.00 0.00 0.00 89 1017.3
20260507023539 11 135 0.0 0.0 0.00 0.00 0.00 89 1017.1
20260507023037 11 133 0.0 0.0 0.00 0.00 0.00 89 1017.2
20260507022533 11 137 0.0 0.0 0.00 0.00 0.00 88 1016.9
20260507022029 11 137 0.0 0.0 0.00 0.00 0.00 88 1017.1
20260507021525 11 137 0.0 0.0 0.00 0.00 0.00 88 1017.1
20260507021022 11 135 0.0 0.0 0.00 0.00 0.00 88 1017.1
20260507020520 11 133 0.0 0.0 0.00 0.00 0.00 88 1017.2
20260507020016 11 134 0.0 0.0 0.00 0.00 0.00 88 1017.1
20260507015514 11 133 0.0 0.0 0.00 0.00 0.00 88 1017.3
20260507015011 11 134 0.0 0.0 0.00 0.00 0.00 89 1016.8
20260507014508 11 133 0.0 0.0 0.00 0.00 0.00 89 1016.8
20260507014004 11 133 0.0 0.0 0.00 0.00 0.00 89 1017.1
20260507013500 11 137 0.0 0.0 0.00 0.00 0.00 89 1017.2
20260507012958 11 137 0.0 0.0 0.00 0.00 0.00 89 1016.9
20260507012455 11 137 0.0 0.0 0.00 0.00 0.00 89 1017.1
20260507011951 11 135 0.0 0.0 0.00 0.00 0.00 89 1017.3
20260507011448 11 135 0.0 0.0 0.00 0.00 0.00 89 1017.1
20260507010943 11 134 0.0 0.0 0.00 0.00 0.00 89 1017.2
20260507010438 11 137 0.0 0.0 0.00 0.00 0.00 89 1017.2
20260507005935 11 137 0.0 0.0 0.00 0.00 0.00 89 1017.1
20260507005433 11 137 0.0 0.0 0.00 0.00 0.00 89 1017.2
20260507004929 11 137 0.0 0.0 0.00 0.00 0.00 89 1017.1
20260507004426 11 131 0.0 0.0 0.00 0.00 0.00 89 1016.8
20260507003923 11 131 0.0 0.0 0.00 0.00 0.00 89 1017.1
20260507003418 11 133 0.0 0.0 0.00 0.00 0.00 89 1017.1
20260507002914 11 129 0.0 0.0 0.00 0.00 0.00 89 1016.9
20260507002410 11 133 0.0 0.0 0.00 0.00 0.00 89 1017.1
20260507001907 11 133 0.0 0.0 0.00 0.00 0.00 89 1016.8
20260507001404 11 137 0.0 0.0 0.00 0.00 0.00 89 1017.2
20260507000856 11 133 0.0 0.0 0.00 0.00 0.00 89 1017.1
20260507000351 11 133 0.0 0.0 0.00 0.00 0.00 89 1017.4
20260506235847 11 133 0.0 0.0 0.00 0.00 0.00 89 1017.3
20260506235344 11 133 0.0 0.0 0.00 0.00 0.00 89 1017.2
20260506234840 11 133 0.0 0.0 0.00 0.00 0.00 88 1017.1
20260506234338 11 133 0.0 0.0 0.00 0.00 0.00 88 1017.3
20260506233835 12 133 0.0 0.0 0.00 0.00 0.00 88 1016.9
20260506233331 12 135 0.0 0.0 0.00 0.00 0.00 88 1017.2
20260506232828 11 133 0.0 0.0 0.00 0.00 0.00 87 1017.1
20260506232324 12 133 0.0 0.0 0.00 0.00 0.00 87 1017.2
20260506231820 12 133 0.0 0.0 0.00 0.00 0.00 87 1017.3
20260506231318 12 134 0.0 0.0 0.00 0.00 0.00 87 1017.1
20260506230815 12 129 0.0 0.0 0.00 0.00 0.00 87 1017.1
20260506230312 12 128 0.0 0.0 0.00 0.00 0.00 87 1017.2
20260506225808 12 135 0.0 0.0 0.00 0.00 0.00 87 1017.1
20260506225306 12 137 0.0 0.0 0.00 0.00 0.00 86 1017.2
20260506224802 12 137 0.0 0.0 0.00 0.00 0.00 86 1017.2
20260506224259 12 135 0.0 0.0 0.00 0.00 0.00 86 1017.2
20260506223755 12 128 0.0 0.0 0.00 0.00 0.00 86 1016.8
20260506223251 12 134 0.0 0.0 0.00 0.00 0.00 86 1016.9
20260506222748 12 133 0.0 0.0 0.00 0.00 0.00 85 1017.4
20260506222244 12 133 0.0 0.0 0.00 0.00 0.00 85 1017.4
20260506221742 12 139 0.0 0.0 0.00 0.00 0.00 84 1017.6
20260506221240 12 139 0.0 0.0 0.00 0.00 0.00 84 1017.3
20260506220731 13 131 0.0 0.0 0.00 0.00 0.00 84 1017.4
20260506220226 12 137 0.0 0.0 0.00 0.00 0.00 84 1017.5
20260506215723 12 137 0.0 0.0 0.00 0.00 0.00 84 1017.4
20260506215219 12 139 0.0 0.0 0.00 0.00 0.00 84 1017.7
20260506214715 13 134 0.0 0.0 0.00 0.00 0.00 83 1017.4
20260506214213 13 208 0.0 0.0 0.00 0.00 0.00 83 1017.5